Theta_e
304 301 299 300 301 301 302 303 303 303 300 300 301 300 301 301 298 297 297 297 296 296 298 300 301 302 303 303 302 301 300 299 298 297 296 295 295 295 294 294 293 292 290 289
302 301 302 302 302 302 303 302 301 301 300 299 298 298 299 298 298 297 296 295 295 297 298 297 299 300 301 302 301 300 299 299 298 297 296 295 295 295 295 294 293 291 289 289
304 302 302 302 300 302 302 301 301 301 298 297 295 297 298 297 299 299 297 295 295 296 297 296 297 299 300 300 300 300 299 298 297 297 296 295 295 294 294 294 292 289 289 289
301 301 302 301 301 299 302 299 299 300 294 295 294 298 297 297 297 299 298 295 296 296 296 295 296 297 298 299 299 299 298 298 297 297 296 295 295 294 294 292 290 288 289 289
300 302 301 301 300 298 300 297 298 295 289 290 293 291 296 297 299 297 297 297 296 295 295 295 296 298 298 298 298 298 298 297 297 297 296 295 294 294 292 290 288 289 289 289
299 298 298 299 298 297 297 296 294 292 285 293 286 291 299 300 299 298 297 295 295 294 294 294 296 297 297 297 297 296 296 296 296 296 295 295 294 292 290 288 288 289 288 288
297 300 298 297 299 298 295 289 292 295 294 298 280 292 300 300 297 295 296 295 293 293 293 293 293 295 296 296 295 295 295 294 294 295 294 294 292 290 287 288 288 288 287 287
292 295 293 297 298 299 297 290 293 293 296 297 282 294 300 296 294 293 292 294 293 292 291 291 293 295 295 295 295 295 295 293 292 293 293 292 290 287 288 288 287 287 286 286
293 296 296 296 296 295 294 289 291 285 277 287 292 293 296 296 291 293 293 293 293 292 291 291 292 294 294 294 294 295 294 293 292 292 291 290 287 288 288 288 287 286 286 286
296 293 290 296 296 293 291 291 292 287 292 289 290 285 299 297 294 292 292 291 291 291 291 290 291 293 295 295 295 294 293 292 291 291 290 287 287 288 287 287 286 286 285 285
290 289 291 295 289 289 290 289 288 288 292 292 290 296 290 292 293 290 290 290 287 289 289 289 291 294 295 295 294 294 293 291 290 290 287 286 287 287 288 287 286 285 284 285
296 293 290 294 294 293 292 290 293 294 290 287 292 297 293 290 282 279 286 285 285 284 287 286 289 291 294 294 293 293 293 290 290 289 286 287 287 287 288 287 286 284 284 285
297 289 287 292 291 292 292 294 291 288 292 290 293 299 286 280 283 282 284 287 284 282 284 286 286 287 291 293 292 292 292 290 290 287 286 286 287 288 287 286 285 284 284 285
297 296 291 291 287 286 292 293 295 292 286 296 298 298 295 297 297 296 297 293 288 284 284 285 286 287 289 292 293 292 292 290 289 287 286 286 286 287 287 286 285 284 284 284
295 293 294 293 291 287 293 290 291 294 296 295 298 297 289 295 297 298 292 290 289 291 291 288 287 287 289 290 292 293 292 290 289 287 285 285 286 287 286 285 284 284 284 284
295 293 289 296 296 297 297 297 296 295 295 294 296 296 296 296 296 295 295 293 290 291 292 293 292 289 290 291 289 287 291 289 288 287 285 284 286 286 286 285 284 284 284 284
296 292 288 292 289 289 292 292 295 295 287 294 295 296 295 294 295 295 288 290 292 293 292 293 293 293 291 292 292 290 290 289 288 287 286 283 285 285 284 284 284 284 284 284
297 296 295 294 289 288 291 292 292 290 291 290 294 293 291 291 291 292 290 292 292 292 292 293 293 292 291 293 291 291 290 288 288 287 284 283 285 285 283 283 283 283 284 284
295 296 296 294 281 290 294 293 293 293 293 293 291 291 290 291 292 292 290 289 289 289 290 291 292 292 292 291 291 290 289 287 286 286 284 283 284 285 283 283 283 283 283 284
289 294 296 283 291 286 290 290 290 291 291 291 289 288 288 291 293 292 291 291 291 291 289 290 289 289 289 290 289 288 286 285 286 286 285 284 284 284 283 283 283 283 283 283
290 292 295 295 296 291 291 288 290 290 290 288 287 287 288 291 292 291 291 291 291 291 291 293 291 287 288 288 288 286 285 285 289 287 285 283 283 284 285 285 283 282 282 282
287 281 283 280 287 292 287 287 286 287 287 286 286 286 287 288 288 288 288 290 290 290 290 290 291 290 289 289 287 286 286 292 288 287 284 283 282 283 284 284 283 282 282 282
286 287 283 284 285 287 287 287 286 286 286 286 286 286 286 286 287 287 289 290 288 288 289 290 292 291 293 290 288 287 291 290 289 286 285 283 282 282 283 284 283 282 282 282
285 285 285 284 285 286 286 286 286 286 286 286 286 287 286 286 286 286 287 288 287 287 288 289 290 290 292 291 288 290 291 290 289 287 286 284 281 282 283 284 284 283 283 282
286 282 281 284 285 284 285 285 286 286 287 287 287 286 287 287 287 286 286 287 286 287 288 290 291 291 292 293 292 291 291 288 288 288 286 284 282 282 283 283 284 283 283 283
283 286 285 286 285 285 285 286 286 286 286 286 286 287 287 287 287 286 286 286 286 286 287 289 290 291 291 291 291 291 291 289 288 287 286 284 283 282 282 283 283 282 282 282
Wind_Speed
4 6 2 2 2 1 2 2 2 3 4 4 4 10 18 10 7 9 11 11 9 9 9 16 20 21 25 26 25 24 22 18 16 15 14 13 14 11 12 13 14 14 15 15
6 3 2 0 4 3 4 2 4 5 2 3 5 16 19 11 5 4 7 8 8 5 5 9 19 19 22 24 22 21 20 18 17 17 15 13 12 12 14 15 15 15 15 15
5 1 3 3 5 4 2 2 2 3 7 1 8 8 6 3 3 4 4 4 1 7 8 6 14 18 18 18 18 18 17 17 17 17 16 15 13 14 16 17 15 15 16 17
5 3 3 4 4 3 1 3 2 2 5 2 5 5 7 3 7 4 5 5 3 5 4 5 10 16 17 16 14 14 15 17 18 18 18 18 16 16 18 17 17 17 17 19
3 4 5 5 1 2 1 3 2 3 3 3 6 3 8 4 5 6 6 4 3 4 5 7 11 16 16 14 13 12 14 17 18 18 19 17 17 16 16 16 17 17 18 18
1 2 3 1 2 3 2 3 5 3 3 3 3 3 6 3 4 4 3 5 6 6 6 7 12 12 13 12 11 10 12 13 13 15 16 17 16 15 16 16 16 17 18 19
5 2 3 4 2 3 5 6 4 6 4 5 2 1 10 7 6 4 6 9 8 7 7 6 7 14 15 15 13 12 12 13 13 16 17 16 14 15 14 15 16 18 20 20
3 6 3 5 3 2 3 5 4 5 2 5 2 6 6 5 5 5 7 7 7 8 7 8 15 19 17 17 16 16 14 14 13 13 15 15 14 13 13 13 15 18 19 18
3 4 1 4 3 3 2 2 2 6 1 3 3 8 10 3 6 7 8 5 9 10 9 11 16 18 18 18 18 17 16 14 14 14 15 14 12 12 12 14 16 17 17 16
3 4 1 4 2 5 4 2 4 3 2 5 5 7 6 8 8 6 7 8 8 7 8 8 13 17 16 18 18 17 16 16 14 14 14 13 12 11 12 13 16 15 14 15
4 4 5 2 3 7 2 2 4 3 4 4 2 6 7 8 8 7 8 9 7 8 10 9 14 16 14 18 19 18 17 16 16 15 15 13 12 11 11 13 13 13 13 14
1 3 2 9 1 3 3 6 4 4 6 3 2 10 6 8 2 2 10 9 6 7 8 7 17 16 15 20 20 21 18 18 18 16 16 13 12 11 11 12 12 11 11 13
4 2 4 9 4 4 2 4 3 2 2 6 2 7 2 4 6 5 8 8 7 7 9 11 14 18 21 20 19 23 21 20 19 18 16 14 12 11 10 10 10 10 10 12
4 4 7 7 6 3 3 4 5 5 3 8 19 30 10 18 19 15 16 15 11 9 10 10 11 19 26 31 23 25 26 22 20 20 18 16 14 11 10 9 8 8 9 12
4 5 5 8 8 5 12 7 9 13 13 10 33 25 4 15 21 23 10 11 12 16 14 13 13 11 23 28 34 31 31 25 23 23 21 19 15 13 11 9 7 7 9 10
2 4 1 8 9 15 21 16 20 20 20 17 26 34 19 21 20 18 16 13 13 18 18 19 14 15 20 28 32 31 33 28 25 25 24 19 17 15 12 9 6 7 9 9
5 2 3 6 3 5 9 15 19 12 5 11 14 22 12 16 19 19 8 12 16 16 17 18 17 17 23 30 26 25 27 24 26 28 25 22 19 16 14 9 7 8 8 9
8 4 3 6 4 3 6 2 5 8 6 10 16 16 12 11 14 15 13 15 15 17 18 17 19 23 32 31 25 23 22 23 26 27 25 22 21 19 15 13 11 10 8 9
13 11 4 3 4 9 11 7 5 5 6 3 4 10 16 22 18 6 9 10 11 14 20 24 30 29 32 27 22 19 20 22 24 27 27 25 23 22 18 17 14 12 10 11
2 11 7 1 4 7 5 4 5 13 21 4 12 22 26 19 16 10 16 20 23 30 22 31 31 30 24 19 17 19 20 22 25 27 27 24 24 24 19 18 15 12 10 13
2 2 14 12 9 8 1 6 4 1 10 23 24 22 21 18 15 23 21 20 27 25 26 30 31 22 20 13 15 19 19 23 23 21 22 22 24 25 23 16 14 12 11 12
6 4 3 1 4 15 6 14 4 16 25 24 23 21 21 22 23 22 23 17 14 19 27 26 23 25 20 14 17 20 21 17 14 16 19 22 24 24 23 21 15 13 12 12
3 7 4 9 6 6 19 19 19 18 18 24 24 24 22 23 23 23 20 17 15 19 24 26 14 25 31 27 22 21 22 13 13 16 19 21 22 23 22 21 20 16 14 13
4 4 4 4 1 14 22 22 19 19 19 21 21 23 24 24 26 25 21 20 15 19 21 24 16 20 26 24 23 24 21 14 14 18 19 20 23 23 23 22 21 20 17 16
5 3 5 11 15 17 13 16 18 21 22 23 23 23 25 24 26 26 23 20 20 24 23 22 20 19 24 32 30 28 23 22 19 19 19 20 23 24 24 24 23 22 19 16
5 8 6 15 19 17 19 21 27 25 24 24 23 25 27 21 22 25 21 25 27 23 26 25 22 24 32 32 34 37 25 24 25 23 21 22 24 25 25 24 22 19 16 14
Wind_Direction
11 64 78 325 6 26 83 75 303 289 22 340 267 284 283 290 265 261 254 251 241 231 234 217 205 204 200 203 206 209 208 214 222 228 236 250 262 275 284 295 301 306 308 310
26 86 320 279 34 60 62 73 296 294 41 4 338 292 282 285 255 248 282 279 236 185 148 166 176 181 189 196 203 203 213 221 232 237 246 254 270 278 290 297 302 306 309 311
114 122 17 76 36 47 56 139 337 263 327 1 332 291 314 324 304 319 346 317 214 193 166 152 160 175 183 189 196 209 222 232 241 245 246 255 266 278 292 299 301 307 311 311
78 4 63 53 75 61 0 9 35 10 38 276 19 280 302 328 302 287 322 7 74 115 106 128 149 168 181 194 207 223 237 245 249 249 248 253 263 280 295 300 302 306 308 309
267 18 36 58 44 63 144 39 63 89 89 45 350 68 272 324 293 259 242 245 217 197 171 170 177 183 191 196 210 228 245 253 255 250 248 246 258 276 286 291 296 301 304 306
73 44 53 70 69 56 82 54 42 62 93 20 271 109 286 259 225 297 234 225 214 204 203 201 193 188 193 202 214 234 255 261 255 241 236 243 257 269 280 286 291 300 305 310
351 18 357 32 37 38 60 49 337 354 9 229 303 33 246 259 268 246 240 219 208 204 201 203 204 207 209 210 222 240 256 257 245 237 237 242 255 269 276 287 294 301 306 309
103 332 30 353 61 180 55 130 148 230 277 275 355 244 249 222 288 270 269 229 205 201 205 210 214 214 218 230 244 247 255 258 248 236 233 241 257 266 274 284 293 298 302 304
101 289 10 47 23 68 277 38 163 97 81 40 259 288 294 307 279 254 255 209 211 214 212 216 220 225 239 255 260 253 255 252 246 237 239 247 256 262 276 290 298 303 305 306
168 348 322 301 89 29 132 144 34 11 331 299 293 281 242 298 287 276 270 238 244 246 246 244 238 240 258 267 266 256 248 249 245 239 242 247 254 265 282 297 305 308 311 312
123 96 289 13 184 182 40 0 38 123 156 204 282 259 217 238 253 265 269 256 253 251 239 242 241 241 261 272 261 249 243 244 236 235 236 241 251 267 285 301 309 315 319 316
88 135 261 229 134 164 170 190 158 132 268 231 169 270 240 244 271 278 286 273 289 272 270 266 252 253 273 274 264 246 238 236 234 231 231 239 252 268 287 302 306 317 317 312
171 338 354 337 14 0 211 201 162 114 89 197 175 258 286 286 327 270 273 301 281 281 279 272 274 261 264 272 260 244 236 233 231 226 229 236 246 259 278 291 301 317 310 309
152 188 183 214 205 144 207 200 213 161 159 272 243 271 302 292 298 303 304 298 288 274 260 260 260 255 258 262 265 249 239 230 225 224 228 233 237 245 264 275 298 316 312 307
146 225 228 244 246 216 250 215 222 224 242 226 273 268 278 278 292 292 277 283 285 277 271 256 253 249 250 256 261 248 237 224 218 222 226 230 230 238 250 262 280 299 299 305
180 270 105 276 234 246 262 253 245 237 245 253 263 274 266 280 283 288 285 281 271 273 274 274 269 254 251 257 262 254 229 217 212 219 226 227 226 234 247 251 264 282 297 305
172 163 39 265 343 306 286 232 237 232 182 217 253 263 292 281 285 301 301 283 278 282 276 277 269 262 257 268 251 238 227 218 213 219 223 224 223 228 239 245 254 265 284 304
228 194 196 282 6 274 252 217 191 194 217 228 262 285 331 320 313 302 272 286 300 300 296 288 278 272 269 269 250 241 228 218 214 217 218 218 220 223 233 235 245 255 272 297
216 227 249 247 198 294 292 301 348 340 298 253 347 337 334 331 315 309 0 340 317 304 306 300 289 270 274 268 232 217 215 213 211 217 219 218 218 219 227 230 238 247 264 279
158 217 207 107 214 241 227 123 343 348 302 19 342 330 324 331 306 315 333 318 320 323 324 330 317 288 268 230 207 201 206 206 214 220 221 220 219 219 223 229 231 240 256 269
118 200 221 235 249 267 199 16 37 31 305 325 317 310 307 296 274 288 289 286 290 298 310 330 331 299 264 226 199 203 206 214 228 229 225 222 222 222 229 236 229 237 250 261
172 166 195 26 254 261 13 343 344 298 303 303 299 295 291 289 288 288 290 281 281 294 306 321 326 321 298 250 218 215 217 233 233 228 224 221 223 223 224 228 230 231 238 252
283 195 199 189 219 301 313 292 294 291 288 289 290 290 288 288 283 285 279 282 275 274 283 296 318 310 300 282 235 234 243 235 230 225 222 221 223 223 222 220 223 231 234 242
267 216 230 341 211 288 288 287 281 280 276 279 283 284 289 288 287 281 282 278 268 272 276 278 292 295 286 285 258 251 258 246 226 227 223 218 220 220 220 220 225 230 232 233
205 153 215 263 285 285 275 282 290 301 298 295 289 283 284 285 280 280 278 267 272 270 274 267 271 272 273 286 287 273 260 242 226 225 226 217 220 220 219 222 222 227 236 235
189 244 245 271 283 283 287 295 298 302 297 294 292 295 298 284 283 282 268 266 264 264 274 259 255 259 269 270 273 277 263 240 226 219 221 222 219 221 220 222 225 228 236 232